User: anonymous   Login
Location: Newark
(61.5000°N, 23.7667°E)
Time: 23:54:40
(UTC+00:00)
Language:

DIWATA 2B (PO-101) - Orbit

View from above orbital plane
View from above orbital plane
View from above satellite
View from above satellite

Ground track
Ground track

The orbit data is extracted from the following two-line orbital elements,

1 43678U 18084H   19318.86955225 -.00000292  00000-0 -23425-4 0  9998
2 43678  97.8656  72.5996 0010047 161.7614 198.3985 14.91581119 56887
Epoch (UTC): 14 November 2019 20:52:09
Eccentricity: 0.0010047
inclination: 97.8656°
perigee height: 586 km
apogee height: 600 km
right ascension of ascending node: 72.5996°
argument of perigee: 161.7614°
revolutions per day: 14.91581119
mean anomaly at epoch: 198.3985°
orbit number at epoch: 5688

The dashed part of the orbit path shows where the satellite is in the earth's shadow,  

DLR